Location: Chervonnoye
(48.6000°N, 34.4000°E)
Time: 12:24:59
(UTC+00:00)

deb Kosmos-2237 - Pass Details

Date: 21 June 2021
Orbit: 850 x 1045 km, 71.0° (Epoch: 25 July)

Event Time Altitude Azimuth Distance (km) Brightness Sun altitude
Rises 00:20:56 0° 327° (NNW) 3,753 ? -9.9°
Reaches altitude 10° 00:25:36 10° 357° (N) 2,835 ? -9.4°
Maximum altitude 00:28:06 12° 19° (NNE) 2,689 ? -9.2°
Drops below altitude 10° 00:30:37 10° 42° (NE) 2,856 ? -8.9°
Sets 00:35:21 0° 71° (ENE) 3,816 ? -8.4°
